Regional Weather Roundup
Issued by NWS

Home | Current Version | Previous Version | Graphics & Text | Print | Product List | Glossary Off
Versions: 1 2 3 4 5 6 7 8 9 10 11 12 13 14 15 16 17 18 19 20 21 22 23 24 25 26 27 28 29 30 31 32 33 34 35 36 37 38 39 40 41 42 43 44 45 46 47 48 49 50

000
ASUS43 KFSD 210710
RWRSD

WEATHER ROUNDUP FOR SOUTH DAKOTA
NATIONAL WEATHER SERVICE SIOUX FALLS SD
100 AM CST SUN JAN 21 2018

NOTE: "FAIR" INDICATES FEW OR NO CLOUDS BELOW 12,000 FEET WITH NO
SIGNIFICANT WEATHER AND/OR OBSTRUCTIONS TO VISIBILITY.


SDZ001>005-009-010-012>017-210800-
NORTHWEST AND NORTH CENTRAL SOUTH DAKOTA

CITY           SKY/WX    TMP DP  RH WIND       PRES   REMARKS
BUFFALO          N/A     28  20  71 W6        29.90S WCI  22
FAITH            N/A     31  27  85 W7        29.97S WCI  24
MOBRIDGE       CLOUDY    34  27  75 NW7       29.94F WCI  28
$$

SDZ012>016-024>037-041>051-057-063-072>074-210800-
SOUTHWEST AND SOUTH CENTRAL SOUTH DAKOTA

CITY           SKY/WX    TMP DP  RH WIND       PRES   REMARKS
RAPID CTY ARPT CLOUDY    29  27  92 NW8       29.97F WCI  21
PIERRE         LGT RAIN  34  33  96 NW5       29.98F WCI  30
CUSTER         LGT SNOW  23  19  85 N7        29.87S FOG     WCI  15
ELLSWORTH AFB  CLOUDY    29  29 100 NW7       29.96  WCI  22
PHILIP         LGT SNOW  32  32 100 W3        29.99F FOG
PINE RIDGE     LGT SNOW  31  30  96 NE7       29.94F FOG     WCI  24
SPEARFISH        N/A     30  25  80 SW5       29.95F WCI  25
WINNER         CLOUDY    36  33  89 N7        29.95S
$$

SDZ004>011-016>023-039-040-210800-
NORTHEAST SOUTH DAKOTA

CITY           SKY/WX    TMP DP  RH WIND       PRES   REMARKS
ABERDEEN       CLOUDY    32  29  88 NW5       29.97F WCI  27
WATERTOWN      CLOUDY    34  30  85 CALM      29.94S
BROOKINGS      CLOUDY    34  30  85 N6        29.94  WCI  29
SISSETON         N/A     36  28  73 NW7       29.96S
$$

SDZ017-020-022-023-036>040-048>070-210800-
SOUTHEAST SOUTH DAKOTA

CITY           SKY/WX    TMP DP  RH WIND       PRES   REMARKS
SIOUX FALLS    CLOUDY    33  29  85 N6        29.93S WCI  28
HURON          CLOUDY    34  32  92 N6        29.96S WCI  29
CHAMBERLAIN    CLOUDY    38  34  87 N7        29.95S
MITCHELL       CLOUDY    35  33  92 N5        29.96F
YANKTON        CLOUDY    27  25  92 N3        29.91F
$$

ABBREVIATIONS USED IN REMARKS
   TC - TEMPERATURE IN CELSIUS
  WCI - WIND CHILL INDEX
   HX - HEAT INDEX
  VSB - VISIBILITY





USA.gov is the U.S. government's official web portal to all federal, state and local government web resources and services.